| time (UTC) | temp C | wind direction | speed KPH | gust KPH | rain 1hr cm | rain 24hr cm | rain mn cm | humidity % | barometer mb |
| 20260506024529 | 10 | 219 | 0.0 | 0.0 | 0.00 | 0.20 | 0.00 | 92 | 1008.0 |
| 20260506024009 | 10 | 219 | 0.0 | 0.0 | 0.00 | 0.20 | 0.00 | 92 | 1008.1 |
| 20260506023511 | 10 | 219 | 0.0 | 0.0 | 0.00 | 0.20 | 0.00 | 92 | 1008.0 |
| 20260506023023 | 10 | 219 | 0.0 | 1.6 | 0.00 | 0.20 | 0.00 | 92 | 1008.0 |
| 20260506023012 | 10 | 219 | 0.0 | 0.0 | 0.00 | 0.23 | 0.00 | 92 | 1007.7 |
| 20260506022508 | 10 | 219 | 0.0 | 1.6 | 0.00 | 0.20 | 0.00 | 92 | 1008.1 |
| 20260506022009 | 10 | 219 | 0.0 | 0.0 | 0.00 | 0.20 | 0.00 | 92 | 1008.1 |
| 20260506021524 | 10 | 219 | 0.0 | 1.6 | 0.00 | 0.20 | 0.00 | 92 | 1008.1 |
| 20260506021005 | 10 | 219 | 0.0 | 1.6 | 0.00 | 0.20 | 0.00 | 92 | 1008.1 |
| 20260506020508 | 10 | 219 | 0.0 | 0.0 | 0.00 | 0.20 | 0.00 | 91 | 1008.0 |
| 20260506020017 | 10 | 219 | 0.0 | 0.0 | 0.00 | 0.20 | 0.00 | 91 | 1008.0 |
| 20260506015507 | 10 | 219 | 0.0 | 0.0 | 0.00 | 0.20 | 0.00 | 91 | 1008.0 |
| 20260506015010 | 10 | 219 | 0.0 | 0.0 | 0.00 | 0.20 | 0.00 | 91 | 1008.0 |
| 20260506014519 | 10 | 219 | 0.0 | 0.0 | 0.00 | 0.20 | 0.00 | 91 | 1008.0 |
| 20260506014008 | 10 | 219 | 0.0 | 0.0 | 0.00 | 0.20 | 0.00 | 91 | 1007.9 |
| 20260506013509 | 10 | 219 | 0.0 | 0.0 | 0.00 | 0.20 | 0.00 | 91 | 1008.0 |
| 20260506013024 | 10 | 219 | 0.0 | 0.0 | 0.00 | 0.20 | 0.00 | 91 | 1007.9 |
| 20260506012510 | 11 | 219 | 0.0 | 0.0 | 0.00 | 0.20 | 0.00 | 91 | 1008.1 |
| 20260506012013 | 11 | 219 | 0.0 | 0.0 | 0.00 | 0.20 | 0.00 | 91 | 1008.1 |
| 20260506011535 | 11 | 219 | 0.0 | 0.0 | 0.00 | 0.20 | 0.00 | 91 | 1008.1 |
| 20260506011015 | 11 | 219 | 0.0 | 1.6 | 0.00 | 0.20 | 0.00 | 91 | 1008.1 |
| 20260506010511 | 11 | 219 | 0.0 | 1.6 | 0.00 | 0.20 | 0.00 | 91 | 1008.2 |
| 20260506010024 | 11 | 219 | 0.0 | 0.0 | 0.00 | 0.20 | 0.00 | 91 | 1008.2 |
| 20260506010012 | 12 | 227 | 1.6 | 4.8 | 0.00 | 0.23 | 0.00 | 91 | 1008.2 |
| 20260506005509 | 11 | 219 | 0.0 | 1.6 | 0.00 | 0.20 | 0.00 | 91 | 1008.2 |
| 20260506005004 | 11 | 219 | 0.0 | 1.6 | 0.00 | 0.20 | 0.00 | 90 | 1008.3 |
| 20260506004533 | 11 | 219 | 0.0 | 3.2 | 0.00 | 0.20 | 0.00 | 90 | 1008.3 |
| 20260506004007 | 11 | 219 | 0.0 | 3.2 | 0.00 | 0.20 | 0.00 | 90 | 1008.4 |
| 20260506003510 | 12 | 227 | 0.0 | 4.8 | 0.00 | 0.20 | 0.00 | 90 | 1008.5 |
| 20260506003032 | 12 | 228 | 1.6 | 8.0 | 0.00 | 0.20 | 0.00 | 90 | 1008.4 |
| 20260506003012 | 12 | 241 | 4.8 | 11.3 | 0.00 | 0.23 | 0.00 | 91 | 1008.6 |
| 20260506002507 | 12 | 215 | 1.6 | 8.0 | 0.00 | 0.20 | 0.00 | 91 | 1008.5 |
| 20260506002014 | 12 | 219 | 1.6 | 4.8 | 0.00 | 0.20 | 0.00 | 91 | 1008.5 |
| 20260506001523 | 12 | 225 | 1.6 | 4.8 | 0.00 | 0.20 | 0.00 | 91 | 1008.6 |
| 20260506001009 | 12 | 231 | 1.6 | 6.4 | 0.00 | 0.20 | 0.00 | 91 | 1008.6 |
| 20260506000513 | 12 | 204 | 0.0 | 6.4 | 0.00 | 0.20 | 0.00 | 91 | 1008.6 |
| 20260506000027 | 12 | 236 | 3.2 | 6.4 | 0.00 | 0.20 | 0.00 | 91 | 1008.6 |
| 20260505235508 | 12 | 249 | 1.6 | 6.4 | 0.00 | 0.20 | 0.00 | 91 | 1008.6 |
| 20260505235011 | 12 | 221 | 3.2 | 8.0 | 0.00 | 0.20 | 0.00 | 91 | 1008.6 |
| 20260505234526 | 12 | 240 | 1.6 | 8.0 | 0.00 | 0.20 | 0.00 | 91 | 1008.7 |
| 20260505234009 | 12 | 245 | 0.0 | 3.2 | 0.00 | 0.20 | 0.00 | 91 | 1008.8 |
| 20260505233514 | 12 | 231 | 1.6 | 3.2 | 0.00 | 0.20 | 0.00 | 91 | 1008.8 |
| 20260505233023 | 12 | 229 | 0.0 | 3.2 | 0.00 | 0.20 | 0.00 | 91 | 1008.8 |
| 20260505233011 | 12 | 252 | 0.0 | 3.2 | 0.00 | 0.23 | 0.00 | 91 | 1008.7 |
| 20260505232506 | 12 | 233 | 0.0 | 3.2 | 0.00 | 0.20 | 0.00 | 91 | 1008.9 |
| 20260505232008 | 12 | 251 | 0.0 | 3.2 | 0.00 | 0.20 | 0.00 | 91 | 1008.8 |
| 20260505231502 | 12 | 223 | 0.0 | 1.6 | 0.00 | 0.20 | 0.00 | 91 | 1008.8 |
| 20260505231006 | 12 | 222 | 0.0 | 1.6 | 0.00 | 0.20 | 0.00 | 91 | 1008.8 |
| 20260505230503 | 12 | 233 | 0.0 | 1.6 | 0.00 | 0.20 | 0.00 | 91 | 1008.7 |
| 20260505230008 | 12 | 252 | 0.0 | 4.8 | 0.00 | 0.20 | 0.00 | 91 | 1008.8 |
| 20260505225503 | 12 | 214 | 1.6 | 4.8 | 0.00 | 0.20 | 0.00 | 91 | 1008.7 |
| 20260505225003 | 12 | 253 | 0.0 | 3.2 | 0.00 | 0.20 | 0.00 | 91 | 1008.8 |
| 20260505224512 | 12 | 238 | 1.6 | 3.2 | 0.00 | 0.20 | 0.00 | 91 | 1008.8 |
| 20260505224006 | 12 | 226 | 0.0 | 3.2 | 0.00 | 0.20 | 0.00 | 91 | 1008.8 |
| 20260505223507 | 13 | 233 | 0.0 | 1.6 | 0.00 | 0.20 | 0.00 | 91 | 1008.7 |
| 20260505223015 | 13 | 243 | 0.0 | 1.6 | 0.00 | 0.20 | 0.00 | 91 | 1008.7 |
| 20260505222507 | 13 | 233 | 0.0 | 1.6 | 0.00 | 0.20 | 0.00 | 91 | 1008.7 |
| 20260505222007 | 13 | 233 | 0.0 | 1.6 | 0.00 | 0.20 | 0.00 | 91 | 1008.7 |
| 20260505221520 | 13 | 233 | 0.0 | 0.0 | 0.00 | 0.20 | 0.00 | 91 | 1008.8 |
| 20260505221006 | 13 | 233 | 0.0 | 0.0 | 0.00 | 0.20 | 0.00 | 91 | 1008.7 |
| 20260505220510 | 13 | 233 | 0.0 | 0.0 | 0.00 | 0.20 | 0.00 | 91 | 1008.7 |
| 20260505220030 | 13 | 233 | 0.0 | 1.6 | 0.00 | 0.20 | 0.00 | 91 | 1008.7 |
| 20260505220011 | 13 | 216 | 0.0 | 3.2 | 0.05 | 0.23 | 0.23 | 91 | 1008.6 |
| 20260505215504 | 13 | 233 | 0.0 | 1.6 | 0.00 | 0.20 | 0.20 | 91 | 1008.7 |
| 20260505215004 | 13 | 233 | 0.0 | 1.6 | 0.00 | 0.20 | 0.20 | 91 | 1008.7 |
| 20260505214508 | 13 | 233 | 0.0 | 1.6 | 0.00 | 0.20 | 0.20 | 91 | 1008.7 |
| 20260505214004 | 13 | 246 | 0.0 | 1.6 | 0.03 | 0.20 | 0.20 | 91 | 1008.8 |
| 20260505213505 | 13 | 215 | 0.0 | 1.6 | 0.05 | 0.20 | 0.20 | 91 | 1008.8 |
| 20260505213011 | 5 | 96 | 0.0 | 0.0 | 0.00 | 0.00 | 0.00 | 91 | 1024.1 |
| 20260505212509 | 13 | 212 | 0.0 | 3.2 | 0.10 | 0.20 | 0.20 | 91 | 1008.8 |
| 20260505212006 | 13 | 212 | 0.0 | 3.2 | 0.13 | 0.20 | 0.20 | 91 | 1008.8 |
| 20260505211521 | 13 | 227 | 0.0 | 1.6 | 0.15 | 0.20 | 0.20 | 91 | 1008.9 |
| 20260505211007 | 13 | 245 | 0.0 | 1.6 | 0.15 | 0.20 | 0.20 | 91 | 1008.8 |
| 20260505210508 | 13 | 223 | 0.0 | 3.2 | 0.15 | 0.20 | 0.20 | 91 | 1008.8 |
| 20260505210024 | 13 | 231 | 0.0 | 3.2 | 0.13 | 0.18 | 0.18 | 90 | 1008.9 |
| 20260505205507 | 13 | 230 | 0.0 | 3.2 | 0.13 | 0.18 | 0.18 | 90 | 1008.8 |
| 20260505205011 | 13 | 226 | 0.0 | 3.2 | 0.13 | 0.18 | 0.18 | 90 | 1008.8 |
| 20260505204527 | 13 | 232 | 0.0 | 3.2 | 0.15 | 0.18 | 0.18 | 90 | 1008.8 |
| 20260505204009 | 13 | 250 | 0.0 | 3.2 | 0.13 | 0.18 | 0.18 | 90 | 1008.8 |
| 20260505203504 | 13 | 219 | 0.0 | 3.2 | 0.10 | 0.15 | 0.15 | 90 | 1008.8 |
| 20260505203022 | 13 | 225 | 1.6 | 4.8 | 0.08 | 0.13 | 0.13 | 89 | 1008.8 |
| 20260505203010 | 13 | 236 | 1.6 | 4.8 | 0.05 | 0.05 | 0.05 | 89 | 1008.2 |
| 20260505202504 | 13 | 238 | 0.0 | 4.8 | 0.05 | 0.08 | 0.08 | 89 | 1008.8 |
| 20260505202004 | 13 | 262 | 0.0 | 4.8 | 0.03 | 0.08 | 0.08 | 89 | 1008.7 |
| 20260505201517 | 13 | 226 | 0.0 | 1.6 | 0.00 | 0.05 | 0.05 | 89 | 1008.7 |
| 20260505201007 | 13 | 239 | 0.0 | 3.2 | 0.00 | 0.05 | 0.05 | 89 | 1008.7 |
| 20260505200506 | 13 | 229 | 0.0 | 3.2 | 0.03 | 0.05 | 0.05 | 88 | 1008.7 |
| 20260505200019 | 13 | 243 | 0.0 | 1.6 | 0.03 | 0.05 | 0.05 | 89 | 1008.7 |
| 20260505200010 | 14 | 127 | 0.0 | 3.2 | 0.03 | 0.05 | 0.05 | 89 | 1007.9 |
| 20260505195511 | 13 | 247 | 0.0 | 1.6 | 0.03 | 0.05 | 0.05 | 88 | 1008.6 |
| 20260505195007 | 13 | 238 | 0.0 | 3.2 | 0.03 | 0.05 | 0.05 | 88 | 1008.6 |
| 20260505194523 | 13 | 245 | 1.6 | 3.2 | 0.00 | 0.03 | 0.03 | 88 | 1008.6 |
| 20260505194007 | 13 | 223 | 0.0 | 3.2 | 0.00 | 0.03 | 0.03 | 88 | 1008.6 |
| 20260505193507 | 13 | 127 | 0.0 | 1.6 | 0.00 | 0.03 | 0.03 | 89 | 1008.5 |
| 20260505193026 | 13 | 127 | 0.0 | 3.2 | 0.00 | 0.03 | 0.03 | 88 | 1008.5 |
| 20260505193014 | 14 | 204 | 0.0 | 0.0 | 0.00 | 0.03 | 0.03 | 89 | 1007.7 |
| 20260505192507 | 13 | 131 | 1.6 | 3.2 | 0.00 | 0.03 | 0.03 | 88 | 1008.5 |
| 20260505192011 | 13 | 108 | 0.0 | 3.2 | 0.00 | 0.03 | 0.03 | 88 | 1008.5 |
| 20260505191512 | 13 | 200 | 0.0 | 0.0 | 0.00 | 0.03 | 0.03 | 88 | 1008.4 |
| 20260505191004 | 13 | 205 | 0.0 | 0.0 | 0.00 | 0.03 | 0.03 | 88 | 1008.3 |
| 20260505190506 | 14 | 205 | 0.0 | 0.0 | 0.00 | 0.00 | 0.00 | 88 | 1008.1 |
| 20260505190032 | 14 | 205 | 0.0 | 0.0 | 0.00 | 0.00 | 0.00 | 88 | 1008.2 |
| 20260505190014 | 15 | 204 | 0.0 | 0.0 | 0.00 | 0.03 | 0.03 | 88 | 1007.6 |
| 20260505185510 | 14 | 205 | 0.0 | 0.0 | 0.00 | 0.00 | 0.00 | 88 | 1008.2 |
| 20260505185012 | 14 | 205 | 0.0 | 0.0 | 0.00 | 0.00 | 0.00 | 88 | 1008.2 |
| 20260505184524 | 14 | 205 | 0.0 | 0.0 | 0.00 | 0.00 | 0.00 | 88 | 1008.2 |
| 20260505184007 | 14 | 205 | 0.0 | 0.0 | 0.00 | 0.00 | 0.00 | 88 | 1008.2 |
| 20260505183510 | 14 | 205 | 0.0 | 0.0 | 0.00 | 0.00 | 0.00 | 88 | 1008.1 |
| 20260505183026 | 15 | 205 | 0.0 | 0.0 | 0.00 | 0.00 | 0.00 | 87 | 1008.0 |
| 20260505183015 | 15 | 207 | 0.0 | 0.0 | 0.00 | 0.03 | 0.03 | 86 | 1007.6 |
| 20260505182507 | 15 | 205 | 0.0 | 0.0 | 0.00 | 0.00 | 0.00 | 87 | 1008.0 |
| 20260505182012 | 15 | 205 | 0.0 | 0.0 | 0.00 | 0.00 | 0.00 | 87 | 1008.0 |
| 20260505181525 | 15 | 205 | 0.0 | 1.6 | 0.00 | 0.00 | 0.00 | 86 | 1007.9 |
| 20260505181008 | 15 | 205 | 0.0 | 1.6 | 0.00 | 0.00 | 0.00 | 86 | 1007.9 |
| 20260505180508 | 15 | 205 | 0.0 | 1.6 | 0.00 | 0.00 | 0.00 | 85 | 1007.9 |
| 20260505180035 | 15 | 207 | 0.0 | 1.6 | 0.00 | 0.00 | 0.00 | 85 | 1008.0 |
| 20260505180014 | 16 | 207 | 0.0 | 3.2 | 0.00 | 0.03 | 0.03 | 85 | 1007.7 |
| 20260505175506 | 15 | 207 | 0.0 | 1.6 | 0.00 | 0.00 | 0.00 | 85 | 1008.0 |
| 20260505175004 | 15 | 207 | 0.0 | 1.6 | 0.00 | 0.00 | 0.00 | 85 | 1007.9 |
| 20260505174514 | 15 | 207 | 0.0 | 1.6 | 0.00 | 0.00 | 0.00 | 84 | 1008.0 |
| 20260505174006 | 15 | 207 | 0.0 | 1.6 | 0.00 | 0.00 | 0.00 | 84 | 1008.0 |
| 20260505173508 | 15 | 207 | 0.0 | 1.6 | 0.00 | 0.00 | 0.00 | 84 | 1008.1 |
| 20260505173018 | 15 | 207 | 0.0 | 1.6 | 0.00 | 0.00 | 0.00 | 84 | 1008.1 |
| 20260505173014 | 15 | 207 | 1.6 | 4.8 | 0.00 | 0.03 | 0.03 | 85 | 1007.9 |
| 20260505172509 | 15 | 207 | 0.0 | 1.6 | 0.00 | 0.00 | 0.00 | 84 | 1008.2 |
| 20260505172008 | 15 | 207 | 0.0 | 1.6 | 0.00 | 0.00 | 0.00 | 84 | 1008.2 |
| 20260505171525 | 15 | 207 | 0.0 | 1.6 | 0.00 | 0.00 | 0.00 | 84 | 1008.2 |
| 20260505171008 | 15 | 207 | 0.0 | 3.2 | 0.00 | 0.00 | 0.00 | 85 | 1008.2 |
| 20260505170509 | 15 | 207 | 0.0 | 3.2 | 0.00 | 0.00 | 0.00 | 85 | 1008.2 |
| 20260505170025 | 15 | 219 | 0.0 | 1.6 | 0.00 | 0.00 | 0.00 | 84 | 1008.2 |
| 20260505170013 | 15 | 247 | 0.0 | 3.2 | 0.00 | 0.03 | 0.03 | 86 | 1007.8 |
| 20260505165509 | 15 | 233 | 0.0 | 1.6 | 0.00 | 0.00 | 0.00 | 85 | 1008.2 |
| 20260505165008 | 15 | 246 | 0.0 | 1.6 | 0.00 | 0.00 | 0.00 | 84 | 1008.1 |
| 20260505164526 | 15 | 246 | 0.0 | 1.6 | 0.00 | 0.00 | 0.00 | 84 | 1008.1 |
| 20260505164004 | 15 | 246 | 0.0 | 1.6 | 0.00 | 0.00 | 0.00 | 85 | 1008.2 |
| 20260505163506 | 15 | 246 | 0.0 | 1.6 | 0.00 | 0.00 | 0.00 | 85 | 1008.3 |
| 20260505163015 | 15 | 246 | 0.0 | 1.6 | 0.00 | 0.00 | 0.00 | 85 | 1008.3 |
| 20260505162505 | 15 | 248 | 0.0 | 1.6 | 0.00 | 0.00 | 0.00 | 85 | 1008.4 |
| 20260505162002 | 15 | 248 | 0.0 | 1.6 | 0.00 | 0.00 | 0.00 | 86 | 1008.3 |
| 20260505161504 | 15 | 248 | 0.0 | 1.6 | 0.00 | 0.00 | 0.00 | 86 | 1008.5 |
| 20260505161004 | 15 | 238 | 0.0 | 1.6 | 0.00 | 0.00 | 0.00 | 86 | 1008.5 |
| 20260505160504 | 15 | 231 | 0.0 | 1.6 | 0.00 | 0.00 | 0.00 | 86 | 1008.5 |
| 20260505153018 | 15 | 200 | 0.0 | 0.0 | 0.00 | 0.00 | 0.00 | 86 | 1008.5 |
| 20260505153013 | 15 | 220 | 0.0 | 3.2 | 0.00 | 0.00 | 0.00 | 86 | 1008.3 |
| 20260505152508 | 15 | 198 | 0.0 | 0.0 | 0.00 | 0.00 | 0.00 | 86 | 1008.5 |
| 20260505152008 | 15 | 198 | 0.0 | 0.0 | 0.00 | 0.00 | 0.00 | 86 | 1008.6 |
| 20260505151519 | 15 | 198 | 0.0 | 1.6 | 0.00 | 0.00 | 0.00 | 86 | 1008.6 |
| 20260505151008 | 15 | 198 | 0.0 | 1.6 | 0.00 | 0.00 | 0.00 | 86 | 1008.6 |
| 20260505150508 | 15 | 231 | 0.0 | 1.6 | 0.00 | 0.00 | 0.00 | 85 | 1008.6 |
| 20260505140506 | 16 | 220 | 6.4 | 14.5 | 0.00 | 0.00 | 0.00 | 81 | 1009.1 |
| 20260505125007 | 18 | 251 | 3.2 | 9.7 | 0.00 | 0.00 | 0.00 | 66 | 1008.9 |
| 20260505124520 | 18 | 243 | 4.8 | 9.7 | 0.00 | 0.00 | 0.00 | 64 | 1008.9 |
| 20260505124007 | 18 | 238 | 4.8 | 9.7 | 0.00 | 0.00 | 0.00 | 64 | 1008.9 |
| 20260505123509 | 18 | 326 | 1.6 | 8.0 | 0.00 | 0.00 | 0.00 | 65 | 1008.9 |
| 20260505123023 | 18 | 222 | 3.2 | 9.7 | 0.00 | 0.00 | 0.00 | 63 | 1008.9 |
| 20260505123011 | 20 | 209 | 6.4 | 16.1 | 0.00 | 0.00 | 0.00 | 63 | 1008.6 |
| 20260505122503 | 18 | 226 | 4.8 | 11.3 | 0.00 | 0.00 | 0.00 | 64 | 1008.9 |
| 20260505122006 | 18 | 243 | 6.4 | 11.3 | 0.00 | 0.00 | 0.00 | 63 | 1008.9 |
| 20260505121508 | 19 | 224 | 1.6 | 11.3 | 0.00 | 0.00 | 0.00 | 65 | 1008.8 |
| 20260505121004 | 19 | 264 | 6.4 | 11.3 | 0.00 | 0.00 | 0.00 | 63 | 1008.8 |
| 20260505120503 | 19 | 278 | 1.6 | 9.7 | 0.00 | 0.00 | 0.00 | 64 | 1008.8 |
| 20260505120029 | 19 | 217 | 4.8 | 9.7 | 0.00 | 0.00 | 0.00 | 63 | 1008.7 |
| 20260505120011 | 20 | 238 | 6.4 | 14.5 | 0.00 | 0.00 | 0.00 | 63 | 1008.7 |
| 20260505115504 | 20 | 204 | 1.6 | 9.7 | 0.00 | 0.00 | 0.00 | 62 | 1008.8 |
| 20260505115007 | 19 | 230 | 1.6 | 9.7 | 0.00 | 0.00 | 0.00 | 62 | 1008.8 |
| 20260505114520 | 19 | 213 | 3.2 | 8.0 | 0.00 | 0.00 | 0.00 | 62 | 1008.8 |
| 20260505114008 | 19 | 218 | 4.8 | 8.0 | 0.00 | 0.00 | 0.00 | 63 | 1008.9 |
| 20260505113508 | 19 | 246 | 3.2 | 6.4 | 0.00 | 0.00 | 0.00 | 62 | 1008.8 |
| 20260505113020 | 19 | 226 | 1.6 | 6.4 | 0.00 | 0.00 | 0.00 | 63 | 1008.8 |
| 20260505113011 | 20 | 224 | 1.6 | 11.3 | 0.00 | 0.00 | 0.00 | 60 | 1009.1 |
| 20260505112511 | 19 | 245 | 0.0 | 6.4 | 0.00 | 0.00 | 0.00 | 63 | 1008.9 |
| 20260505112008 | 19 | 217 | 0.0 | 3.2 | 0.00 | 0.00 | 0.00 | 61 | 1008.9 |
| 20260505111531 | 19 | 10 | 0.0 | 9.7 | 0.00 | 0.00 | 0.00 | 60 | 1009.0 |
| 20260505111008 | 20 | 66 | 0.0 | 9.7 | 0.00 | 0.00 | 0.00 | 60 | 1009.0 |
| 20260505110504 | 20 | 219 | 1.6 | 6.4 | 0.00 | 0.00 | 0.00 | 58 | 1009.0 |
| 20260505102007 | 20 | 329 | 1.6 | 11.3 | 0.00 | 0.00 | 0.00 | 61 | 1009.5 |
| 20260505101529 | 20 | 218 | 1.6 | 9.7 | 0.00 | 0.00 | 0.00 | 60 | 1009.6 |
| 20260505101011 | 20 | 308 | 3.2 | 9.7 | 0.00 | 0.00 | 0.00 | 59 | 1009.7 |
| 20260505100513 | 20 | 217 | 3.2 | 9.7 | 0.00 | 0.00 | 0.00 | 60 | 1009.7 |
| 20260505100030 | 20 | 252 | 4.8 | 9.7 | 0.00 | 0.00 | 0.00 | 61 | 1009.8 |
| 20260505100010 | 19 | 246 | 3.2 | 11.3 | 0.00 | 0.00 | 0.00 | 65 | 1009.9 |
| 20260505095509 | 20 | 267 | 1.6 | 9.7 | 0.00 | 0.00 | 0.00 | 61 | 1009.7 |
| 20260505095003 | 20 | 240 | 3.2 | 8.0 | 0.00 | 0.00 | 0.00 | 61 | 1009.7 |
| 20260505094510 | 19 | 220 | 4.8 | 8.0 | 0.00 | 0.00 | 0.00 | 62 | 1009.8 |
| 20260505094007 | 19 | 195 | 1.6 | 6.4 | 0.00 | 0.00 | 0.00 | 65 | 1009.8 |
| 20260505093507 | 19 | 239 | 1.6 | 6.4 | 0.00 | 0.00 | 0.00 | 64 | 1009.8 |
| 20260505093017 | 18 | 220 | 1.6 | 9.7 | 0.00 | 0.00 | 0.00 | 67 | 1009.9 |
| 20260505093010 | 18 | 230 | 4.8 | 11.3 | 0.00 | 0.00 | 0.00 | 70 | 1010.2 |
| 20260505092508 | 18 | 213 | 4.8 | 9.7 | 0.00 | 0.00 | 0.00 | 67 | 1009.9 |
| 20260505092009 | 18 | 232 | 6.4 | 8.0 | 0.00 | 0.00 | 0.00 | 69 | 1010.0 |
| 20260505091522 | 18 | 244 | 3.2 | 8.0 | 0.00 | 0.00 | 0.00 | 67 | 1010.0 |
| 20260505091009 | 18 | 252 | 3.2 | 9.7 | 0.00 | 0.00 | 0.00 | 68 | 1010.1 |
| 20260505090508 | 18 | 238 | 3.2 | 9.7 | 0.00 | 0.00 | 0.00 | 69 | 1010.1 |
| 20260505090025 | 18 | 246 | 3.2 | 9.7 | 0.00 | 0.00 | 0.00 | 69 | 1010.1 |
| 20260505090010 | 17 | 233 | 8.0 | 14.5 | 0.00 | 0.00 | 0.00 | 76 | 1010.4 |
| 20260505085510 | 18 | 346 | 3.2 | 9.7 | 0.00 | 0.00 | 0.00 | 71 | 1010.0 |
| 20260505085009 | 17 | 241 | 4.8 | 8.0 | 0.00 | 0.00 | 0.00 | 71 | 1010.1 |
| 20260505084543 | 17 | 313 | 1.6 | 8.0 | 0.00 | 0.00 | 0.00 | 73 | 1010.2 |
| 20260505084012 | 17 | 245 | 3.2 | 8.0 | 0.00 | 0.00 | 0.00 | 75 | 1010.2 |
| 20260505083508 | 17 | 200 | 4.8 | 8.0 | 0.00 | 0.00 | 0.00 | 75 | 1010.3 |
| 20260505083018 | 17 | 217 | 4.8 | 9.7 | 0.00 | 0.00 | 0.00 | 75 | 1010.4 |
| 20260505083010 | 16 | 243 | 4.8 | 11.3 | 0.00 | 0.00 | 0.00 | 77 | 1010.4 |
| 20260505082507 | 16 | 233 | 3.2 | 9.7 | 0.00 | 0.00 | 0.00 | 76 | 1010.3 |
| 20260505082009 | 16 | 245 | 1.6 | 6.4 | 0.00 | 0.00 | 0.00 | 77 | 1010.3 |
| 20260505081518 | 16 | 229 | 3.2 | 8.0 | 0.00 | 0.00 | 0.00 | 76 | 1010.3 |
| 20260505081012 | 16 | 209 | 4.8 | 8.0 | 0.00 | 0.00 | 0.00 | 76 | 1010.3 |
| 20260505080509 | 16 | 221 | 1.6 | 8.0 | 0.00 | 0.00 | 0.00 | 76 | 1010.3 |
| 20260505080033 | 16 | 212 | 3.2 | 6.4 | 0.00 | 0.00 | 0.00 | 76 | 1010.4 |
| 20260505080009 | 15 | 232 | 0.0 | 4.8 | 0.00 | 0.00 | 0.00 | 82 | 1010.4 |
| 20260505075509 | 16 | 205 | 3.2 | 6.4 | 0.00 | 0.00 | 0.00 | 77 | 1010.4 |
| 20260505075007 | 15 | 242 | 1.6 | 4.8 | 0.00 | 0.00 | 0.00 | 78 | 1010.4 |
| 20260505074526 | 15 | 213 | 3.2 | 4.8 | 0.00 | 0.00 | 0.00 | 78 | 1010.4 |
| 20260505074009 | 15 | 247 | 1.6 | 3.2 | 0.00 | 0.00 | 0.00 | 81 | 1010.4 |
| 20260505073512 | 14 | 232 | 0.0 | 3.2 | 0.00 | 0.00 | 0.00 | 82 | 1010.4 |
| 20260505073039 | 14 | 245 | 0.0 | 3.2 | 0.00 | 0.00 | 0.00 | 83 | 1010.3 |
| 20260505073014 | 13 | 235 | 0.0 | 0.0 | 0.00 | 0.00 | 0.00 | 86 | 1010.5 |
| 20260505072509 | 14 | 221 | 0.0 | 1.6 | 0.00 | 0.00 | 0.00 | 83 | 1010.3 |
| 20260505072005 | 14 | 242 | 1.6 | 1.6 | 0.00 | 0.00 | 0.00 | 83 | 1010.3 |
| 20260505071514 | 13 | 235 | 0.0 | 1.6 | 0.00 | 0.00 | 0.00 | 83 | 1010.4 |
| 20260505071008 | 13 | 235 | 0.0 | 0.0 | 0.00 | 0.00 | 0.00 | 84 | 1010.4 |
| 20260505070508 | 13 | 235 | 0.0 | 1.6 | 0.00 | 0.00 | 0.00 | 85 | 1010.4 |
| 20260505070025 | 13 | 235 | 0.0 | 1.6 | 0.00 | 0.00 | 0.00 | 85 | 1010.5 |
| 20260505070014 | 13 | 235 | 0.0 | 3.2 | 0.00 | 0.00 | 0.00 | 87 | 1010.8 |
| 20260505065505 | 13 | 235 | 0.0 | 1.6 | 0.00 | 0.00 | 0.00 | 86 | 1010.7 |
| 20260505065003 | 13 | 235 | 0.0 | 1.6 | 0.00 | 0.00 | 0.00 | 86 | 1010.7 |
| 20260505064504 | 12 | 235 | 0.0 | 1.6 | 0.00 | 0.00 | 0.00 | 86 | 1010.8 |
| 20260505064004 | 12 | 235 | 0.0 | 1.6 | 0.00 | 0.00 | 0.00 | 87 | 1010.7 |
| 20260505063504 | 12 | 235 | 0.0 | 1.6 | 0.00 | 0.00 | 0.00 | 87 | 1010.8 |
| 20260505063014 | 12 | 354 | 0.0 | 3.2 | 0.00 | 0.00 | 0.00 | 87 | 1011.0 |
| 20260505063008 | 12 | 235 | 0.0 | 1.6 | 0.00 | 0.00 | 0.00 | 86 | 1010.8 |
| 20260505062506 | 12 | 235 | 0.0 | 1.6 | 0.00 | 0.00 | 0.00 | 86 | 1010.9 |
| 20260505062007 | 12 | 231 | 0.0 | 1.6 | 0.00 | 0.00 | 0.00 | 86 | 1010.9 |
| 20260505061525 | 12 | 353 | 0.0 | 1.6 | 0.00 | 0.00 | 0.00 | 86 | 1010.9 |
| 20260505061007 | 12 | 353 | 0.0 | 1.6 | 0.00 | 0.00 | 0.00 | 87 | 1010.9 |
| 20260505060510 | 12 | 353 | 0.0 | 1.6 | 0.00 | 0.00 | 0.00 | 87 | 1010.9 |
| 20260505060033 | 12 | 353 | 0.0 | 1.6 | 0.00 | 0.00 | 0.00 | 87 | 1010.9 |
| 20260505060013 | 12 | 354 | 0.0 | 0.0 | 0.00 | 0.00 | 0.00 | 88 | 1010.8 |
| 20260505055508 | 12 | 353 | 0.0 | 0.0 | 0.00 | 0.00 | 0.00 | 87 | 1011.0 |
| 20260505055011 | 12 | 353 | 0.0 | 0.0 | 0.00 | 0.00 | 0.00 | 87 | 1011.0 |
| 20260505054522 | 12 | 353 | 0.0 | 0.0 | 0.00 | 0.00 | 0.00 | 87 | 1011.0 |
| 20260505054017 | 12 | 353 | 0.0 | 0.0 | 0.00 | 0.00 | 0.00 | 88 | 1011.0 |
| 20260505053504 | 11 | 353 | 0.0 | 0.0 | 0.00 | 0.00 | 0.00 | 88 | 1010.9 |
| 20260505053013 | 11 | 354 | 0.0 | 0.0 | 0.00 | 0.00 | 0.00 | 89 | 1010.6 |
| 20260505053006 | 11 | 353 | 0.0 | 1.6 | 0.00 | 0.00 | 0.00 | 88 | 1010.9 |
| 20260505052503 | 11 | 353 | 0.0 | 1.6 | 0.00 | 0.00 | 0.00 | 88 | 1010.9 |
| 20260505052003 | 11 | 353 | 0.0 | 0.0 | 0.00 | 0.00 | 0.00 | 88 | 1010.8 |
| 20260505051507 | 11 | 353 | 0.0 | 0.0 | 0.00 | 0.00 | 0.00 | 88 | 1010.8 |
| 20260505051005 | 11 | 353 | 0.0 | 0.0 | 0.00 | 0.00 | 0.00 | 88 | 1010.8 |
| 20260505050506 | 11 | 353 | 0.0 | 0.0 | 0.00 | 0.00 | 0.00 | 88 | 1010.8 |
| 20260505041508 | 11 | 360 | 0.0 | 1.6 | 0.00 | 0.00 | 0.00 | 88 | 1010.8 |
| 20260505041004 | 11 | 360 | 0.0 | 1.6 | 0.00 | 0.00 | 0.00 | 88 | 1010.8 |
| 20260505040508 | 11 | 360 | 0.0 | 1.6 | 0.00 | 0.00 | 0.00 | 87 | 1010.8 |
| 20260505040019 | 11 | 360 | 0.0 | 1.6 | 0.00 | 0.00 | 0.00 | 87 | 1010.8 |
| 20260505040013 | 12 | 0 | 0.0 | 0.0 | 0.00 | 0.00 | 0.00 | 87 | 1010.9 |
| 20260505035505 | 11 | 360 | 0.0 | 0.0 | 0.00 | 0.00 | 0.00 | 87 | 1010.8 |
| 20260505035005 | 12 | 359 | 0.0 | 0.0 | 0.00 | 0.00 | 0.00 | 87 | 1010.9 |
| 20260505034518 | 12 | 360 | 0.0 | 0.0 | 0.00 | 0.00 | 0.00 | 87 | 1010.9 |
| 20260505034008 | 12 | 360 | 0.0 | 0.0 | 0.00 | 0.00 | 0.00 | 87 | 1011.0 |
| 20260505033506 | 12 | 360 | 0.0 | 0.0 | 0.00 | 0.00 | 0.00 | 87 | 1011.0 |
| 20260505033022 | 12 | 360 | 0.0 | 0.0 | 0.00 | 0.00 | 0.00 | 87 | 1011.1 |
| 20260505033012 | 12 | 0 | 0.0 | 0.0 | 0.00 | 0.00 | 0.00 | 87 | 1011.2 |
| 20260505032511 | 12 | 360 | 0.0 | 0.0 | 0.00 | 0.00 | 0.00 | 87 | 1011.1 |
| 20260505032014 | 12 | 360 | 0.0 | 0.0 | 0.00 | 0.00 | 0.00 | 87 | 1011.2 |
| 20260505031526 | 12 | 360 | 0.0 | 0.0 | 0.00 | 0.00 | 0.00 | 87 | 1011.2 |
| 20260505031010 | 12 | 360 | 0.0 | 0.0 | 0.00 | 0.00 | 0.00 | 87 | 1011.2 |
| 20260505030507 | 12 | 360 | 0.0 | 0.0 | 0.00 | 0.00 | 0.00 | 86 | 1011.3 |
| 20260505030025 | 12 | 360 | 0.0 | 0.0 | 0.00 | 0.00 | 0.00 | 86 | 1011.4 |
| 20260505030012 | 13 | 11 | 0.0 | 0.0 | 0.00 | 0.00 | 0.00 | 86 | 1011.6 |
| 20260505025509 | 12 | 360 | 0.0 | 0.0 | 0.00 | 0.00 | 0.00 | 86 | 1011.4 |
| 20260505025003 | 12 | 360 | 0.0 | 0.0 | 0.00 | 0.00 | 0.00 | 86 | 1011.4 |